• In United Kingdom
  • List of Countries
  • For 7 days
  • Water Temperature
  • Satellite Maps
  • Weather Map
  • Weather Widgets
  • user-avatar
    Login

    Hourly Weather Skarzyn

    Today, 19 June, Tuesday

    Time Temperature Precipitation Wind Pressure Humidity
    00:00 +18°C° 0 mm 1 mps 754 mmHg 80%
    01:00 +17°C° 0 mm 2 mps 754 mmHg 78%
    02:00 +18°C° 0 mm 1 mps 754 mmHg 79%
    03:00 +16°C° 0 mm 1 mps 754 mmHg 80%
    04:00 +16°C° 0 mm 1 mps 754 mmHg 81%
    05:00 +18°C° 0 mm 2 mps 754 mmHg 76%
    06:00 +19°C° 0 mm 2 mps 754 mmHg 71%
    07:00 +21°C° 0 mm 2 mps 754 mmHg 66%
    08:00 +22°C° 0 mm 3 mps 754 mmHg 62%
    09:00 +23°C° 0 mm 4 mps 754 mmHg 59%
    10:00 +26°C° 0 mm 4 mps 755 mmHg 55%
    11:00 +25°C° 0.1 mm 5 mps 754 mmHg 58%
    12:00 +25°C° 0.1 mm 5 mps 754 mmHg 61%
    13:00 +25°C° 0.1 mm 5 mps 754 mmHg 64%
    14:00 +25°C° 0.1 mm 5 mps 754 mmHg 65%
    15:00 +25°C° 0.1 mm 4 mps 754 mmHg 65%
    16:00 +25°C° 0.1 mm 4 mps 754 mmHg 66%
    17:00 +23°C° 0 mm 4 mps 755 mmHg 68%
    18:00 +22°C° 0 mm 3 mps 755 mmHg 71%
    19:00 +22°C° 0 mm 3 mps 755 mmHg 73%
    20:00 +20°C° 0 mm 2 mps 755 mmHg 76%
    21:00 +19°C° 0 mm 2 mps 755 mmHg 78%
    22:00 +18°C° 0 mm 2 mps 756 mmHg 81%
    23:00 +17°C° 0 mm 2 mps 756 mmHg 83%

    Tomorrow, 20 June, Wednesday

    Time Temperature Precipitation Wind Pressure Humidity
    00:00 +17°C° 0 mm 2 mps 756 mmHg 85%
    01:00 +17°C° 0 mm 2 mps 756 mmHg 87%
    02:00 +16°C° 0 mm 2 mps 757 mmHg 89%
    03:00 +16°C° 0 mm 2 mps 757 mmHg 91%
    04:00 +16°C° 0 mm 2 mps 757 mmHg 93%
    05:00 +17°C° 0 mm 2 mps 757 mmHg 86%
    06:00 +18°C° 0 mm 2 mps 757 mmHg 79%
    07:00 +20°C° 0 mm 2 mps 757 mmHg 73%
    08:00 +21°C° 0 mm 2 mps 757 mmHg 68%
    09:00 +22°C° 0 mm 3 mps 757 mmHg 63%
    10:00 +24°C° 0 mm 3 mps 757 mmHg 58%
    11:00 +25°C° 0 mm 3 mps 757 mmHg 56%
    12:00 +26°C° 0 mm 3 mps 756 mmHg 54%
    13:00 +27°C° 0 mm 3 mps 756 mmHg 51%
    14:00 +27°C° 0 mm 3 mps 756 mmHg 52%
    15:00 +27°C° 0 mm 3 mps 755 mmHg 53%
    16:00 +27°C° 0 mm 3 mps 755 mmHg 53%
    17:00 +26°C° 0 mm 2 mps 755 mmHg 59%
    18:00 +25°C° 0 mm 2 mps 755 mmHg 64%
    19:00 +24°C° 0 mm 1 mps 754 mmHg 69%
    20:00 +23°C° 0 mm 1 mps 754 mmHg 72%
    21:00 +22°C° 0 mm 1 mps 755 mmHg 76%
    22:00 +21°C° 0 mm 1 mps 755 mmHg 79%
    23:00 +20°C° 0 mm 1 mps 754 mmHg 81%

    Day after tomorrow, 21 June, Thursday

    Time Temperature Precipitation Wind Pressure Humidity
    00:00 +19°C° 0 mm 2 mps 754 mmHg 82%
    01:00 +18°C° 0 mm 2 mps 754 mmHg 84%
    02:00 +18°C° 0 mm 2 mps 753 mmHg 85%
    03:00 +18°C° 0 mm 2 mps 753 mmHg 87%
    04:00 +18°C° 0 mm 2 mps 753 mmHg 88%
    05:00 +20°C° 0 mm 3 mps 752 mmHg 82%
    06:00 +22°C° 0 mm 3 mps 752 mmHg 77%
    07:00 +24°C° 0 mm 3 mps 752 mmHg 71%
    08:00 +26°C° 0.1 mm 4 mps 751 mmHg 66%
    09:00 +27°C° 0.1 mm 4 mps 750 mmHg 61%
    10:00 +28°C° 0.1 mm 5 mps 750 mmHg 56%
    11:00 +29°C° 0.2 mm 5 mps 749 mmHg 55%
    12:00 +30°C° 0.2 mm 6 mps 748 mmHg 53%
    13:00 +30°C° 0.2 mm 6 mps 747 mmHg 52%
    14:00 +30°C° 0.1 mm 6 mps 746 mmHg 53%
    15:00 +30°C° 0.1 mm 5 mps 745 mmHg 55%
    16:00 +30°C° 0.1 mm 5 mps 744 mmHg 56%
    17:00 +28°C° 1.1 mm 6 mps 744 mmHg 64%
    18:00 +24°C° 1.1 mm 6 mps 744 mmHg 72%
    19:00 +22°C° 1.1 mm 7 mps 744 mmHg 80%
    20:00 +20°C° 1 mm 7 mps 745 mmHg 82%
    21:00 +17°C° 1 mm 6 mps 746 mmHg 83%
    22:00 +14°C° 1 mm 6 mps 747 mmHg 85%
    23:00 +13°C° 0 mm 6 mps 747 mmHg 84%

    22 June, Friday

    Time Temperature Precipitation Wind Pressure Humidity
    00:00 +12°C° 0 mm 5 mps 748 mmHg 84%
    01:00 +11°C° 0 mm 4 mps 748 mmHg 84%
    02:00 +10°C° 0 mm 5 mps 748 mmHg 83%
    03:00 +9°C° 0 mm 5 mps 748 mmHg 82%
    04:00 +8°C° 0 mm 5 mps 749 mmHg 82%
    05:00 +9°C° 0 mm 6 mps 749 mmHg 77%
    06:00 +10°C° 0 mm 6 mps 749 mmHg 72%
    07:00 +11°C° 0 mm 7 mps 749 mmHg 68%
    08:00 +12°C° 0 mm 7 mps 749 mmHg 62%
    09:00 +14°C° 0 mm 7 mps 749 mmHg 57%
    10:00 +15°C° 0 mm 8 mps 749 mmHg 52%
    11:00 +16°C° 0.2 mm 8 mps 749 mmHg 52%
    12:00 +16°C° 0.2 mm 8 mps 749 mmHg 52%
    13:00 +17°C° 0.2 mm 8 mps 748 mmHg 52%
    14:00 +16°C° 0.4 mm 8 mps 748 mmHg 54%
    15:00 +16°C° 0.4 mm 8 mps 748 mmHg 56%
    16:00 +16°C° 0.4 mm 8 mps 748 mmHg 58%
    17:00 +14°C° 0.3 mm 7 mps 748 mmHg 65%
    18:00 +13°C° 0.3 mm 6 mps 748 mmHg 71%
    19:00 +11°C° 0.3 mm 6 mps 748 mmHg 78%
    20:00 +11°C° 0 mm 6 mps 749 mmHg 80%
    21:00 +10°C° 0 mm 6 mps 749 mmHg 82%
    22:00 +10°C° 0 mm 6 mps 749 mmHg 85%
    23:00 +10°C° 0 mm 6 mps 749 mmHg 84%

    23 June, Saturday

    Time Temperature Precipitation Wind Pressure Humidity
    00:00 +9°C° 0 mm 5 mps 749 mmHg 84%
    01:00 +9°C° 0 mm 5 mps 749 mmHg 84%
    02:00 +9°C° 0 mm 5 mps 749 mmHg 85%
    03:00 +8°C° 0 mm 5 mps 749 mmHg 86%
    04:00 +8°C° 0 mm 4 mps 749 mmHg 88%
    05:00 +9°C° 0 mm 5 mps 750 mmHg 83%
    06:00 +12°C° 0 mm 5 mps 750 mmHg 78%
    07:00 +13°C° 0 mm 6 mps 750 mmHg 73%
    08:00 +14°C° 0.1 mm 6 mps 750 mmHg 68%
    09:00 +16°C° 0.1 mm 6 mps 750 mmHg 64%
    10:00 +17°C° 0.1 mm 6 mps 750 mmHg 60%
    11:00 +17°C° 0.4 mm 6 mps 750 mmHg 62%
    12:00 +17°C° 0.4 mm 6 mps 750 mmHg 63%
    13:00 +17°C° 0.4 mm 7 mps 750 mmHg 65%
    14:00 +17°C° 0.5 mm 6 mps 751 mmHg 67%
    15:00 +17°C° 0.5 mm 6 mps 751 mmHg 68%
    16:00 +17°C° 0.5 mm 6 mps 751 mmHg 69%
    17:00 +17°C° 0.3 mm 5 mps 751 mmHg 73%
    18:00 +17°C° 0.3 mm 4 mps 751 mmHg 77%
    19:00 +15°C° 0.3 mm 4 mps 751 mmHg 81%
    20:00 +14°C° 0 mm 3 mps 752 mmHg 83%
    21:00 +13°C° 0 mm 3 mps 752 mmHg 86%
    22:00 +12°C° 0 mm 3 mps 752 mmHg 88%
    23:00 +12°C° 0 mm 3 mps 752 mmHg 89%

    24 June, Sunday

    Time Temperature Precipitation Wind Pressure Humidity
    00:00 +11°C° 0 mm 3 mps 753 mmHg 90%
    01:00 +11°C° 0 mm 3 mps 753 mmHg 91%
    02:00 +11°C° 0 mm 3 mps 753 mmHg 91%
    03:00 +10°C° 0 mm 3 mps 753 mmHg 92%
    04:00 +9°C° 0 mm 3 mps 753 mmHg 93%
    05:00 +11°C° 0 mm 3 mps 753 mmHg 86%
    06:00 +12°C° 0 mm 3 mps 753 mmHg 78%
    07:00 +14°C° 0 mm 4 mps 754 mmHg 71%
    08:00 +17°C° 0 mm 4 mps 754 mmHg 64%
    09:00 +18°C° 0 mm 4 mps 754 mmHg 56%
    10:00 +20°C° 0 mm 4 mps 754 mmHg 49%
    11:00 +20°C° 0 mm 4 mps 754 mmHg 48%
    12:00 +21°C° 0 mm 4 mps 754 mmHg 47%
    13:00 +22°C° 0 mm 4 mps 754 mmHg 45%
    14:00 +21°C° 0.2 mm 4 mps 754 mmHg 49%
    15:00 +21°C° 0.2 mm 4 mps 754 mmHg 53%
    16:00 +21°C° 0.2 mm 4 mps 754 mmHg 57%
    17:00 +20°C° 0.3 mm 4 mps 754 mmHg 64%
    18:00 +18°C° 0.3 mm 3 mps 754 mmHg 70%
    19:00 +17°C° 0.3 mm 3 mps 754 mmHg 76%
    20:00 +16°C° 0 mm 3 mps 754 mmHg 78%
    21:00 +14°C° 0 mm 3 mps 755 mmHg 80%
    22:00 +14°C° 0 mm 2 mps 755 mmHg 82%
    23:00 +13°C° 0 mm 2 mps 755 mmHg 83%
    Show more